FW5198 Weather Reports


Display with metric or nautical units.
time (UTC)temp
F
wind
direction
speed
MPH
gust
MPH
rain 1hr
in
rain 24hr
in
rain mn
in
humidity
%
barometer
mb
20260510071543 52 0 0.0 1.0 0.00 0.00 0.00 94 1013.7
20260510070042 52 0 0.0 2.0 0.00 0.00 0.00 94 1013.6
20260510064540 52 0 0.0 0.0 0.00 0.00 0.00 94 1013.5
20260510063040 52 0 0.0 0.0 0.00 0.00 0.00 94 1013.6
20260510061539 53 0 0.0 0.0 0.00 0.00 0.00 94 1013.5
20260510060044 53 0 0.0 0.0 0.00 0.00 0.00 94 1013.6
20260510054540 53 0 0.0 0.0 0.00 0.00 0.00 93 1013.5
20260510053038 53 0 0.0 0.0 0.00 0.00 0.00 93 1013.6
20260510051543 54 52 0.0 1.0 0.00 0.00 0.00 93 1013.6
20260510050041 54 0 0.0 1.0 0.00 0.00 0.00 92 1013.6
20260510044544 54 0 0.0 0.0 0.00 0.00 0.00 92 1013.5
20260510043039 54 0 0.0 0.0 0.00 0.00 0.00 91 1013.5
20260510041542 55 0 0.0 1.0 0.00 0.00 0.00 90 1013.5
20260510040038 56 0 0.0 0.0 0.00 0.00 0.00 89 1013.5
20260510034543 56 0 0.0 1.0 0.00 0.00 0.00 89 1013.4
20260510033039 57 0 0.0 1.0 0.00 0.00 0.00 87 1013.5
20260510031538 57 0 0.0 1.0 0.00 0.00 0.00 86 1013.4
20260510030049 58 0 0.0 1.0 0.00 0.00 0.00 85 1013.1
20260510024542 59 0 0.0 1.0 0.00 0.00 0.00 84 1013.1
20260510023039 60 0 0.0 1.0 0.00 0.00 0.00 82 1013.0
20260510021539 60 0 0.0 1.0 0.00 0.00 0.00 80 1012.7
20260510020038 61 0 0.0 1.0 0.00 0.00 0.00 79 1012.5
20260510014545 62 0 0.0 1.0 0.00 0.00 0.00 76 1012.5
20260510013041 64 52 0.0 1.0 0.00 0.00 0.00 73 1012.2
20260510011546 65 52 0.0 1.0 0.00 0.00 0.00 70 1012.1
20260510010043 67 0 0.0 1.0 0.00 0.00 0.00 67 1011.9
20260510004547 69 0 0.0 1.0 0.00 0.00 0.00 65 1011.8
20260510003042 71 0 0.0 0.0 0.00 0.00 0.00 61 1011.5
20260510001541 73 0 0.0 1.0 0.00 0.00 0.00 58 1011.5
20260510000037 75 0 0.0 1.0 0.00 0.00 0.00 53 1011.5
20260509234542 77 0 0.0 2.0 0.00 0.00 0.00 48 1011.4
20260509233044 78 41 2.0 5.0 0.00 0.00 0.00 44 1011.3
20260509231543 79 49 1.0 4.0 0.00 0.00 0.00 42 1011.2
20260509230050 79 40 0.0 3.0 0.00 0.00 0.00 43 1011.1
20260509224545 79 73 1.0 4.0 0.00 0.00 0.00 44 1011.0
20260509223039 79 0 1.0 5.0 0.00 0.00 0.00 43 1011.0
20260509221543 79 0 1.0 4.0 0.00 0.00 0.00 43 1010.8
20260509220046 79 20 2.0 4.0 0.00 0.00 0.00 44 1011.1
20260509214536 78 0 1.0 5.0 0.00 0.00 0.00 44 1010.8
20260509213043 80 103 2.0 7.0 0.00 0.00 0.00 43 1010.7
20260509211540 80 67 2.0 6.0 0.00 0.00 0.00 43 1010.6
20260509210044 79 107 2.0 6.0 0.00 0.00 0.00 43 1010.5
20260509204545 80 86 0.0 4.0 0.00 0.00 0.00 44 1010.6
20260509203043 80 65 1.0 2.0 0.00 0.00 0.00 44 1010.6
20260509201543 78 23 3.0 8.0 0.00 0.00 0.00 45 1010.8
20260509200037 79 0 2.0 5.0 0.00 0.00 0.00 47 1010.8
20260509194538 79 103 2.0 5.0 0.00 0.00 0.00 48 1011.1
20260509193042 78 34 2.0 6.0 0.00 0.00 0.00 50 1011.2
20260509191540 78 61 5.0 9.0 0.00 0.00 0.00 50 1011.2
20260509190045 77 140 2.0 9.0 0.00 0.00 0.00 52 1011.3
20260509184551 77 11 3.0 7.0 0.00 0.00 0.00 51 1011.5
20260509183037 77 44 3.0 8.0 0.00 0.00 0.00 53 1011.4
20260509181551 77 37 3.0 6.0 0.00 0.00 0.00 52 1011.3
20260509180043 76 34 2.0 9.0 0.00 0.00 0.00 52 1011.4
20260509174545 76 45 0.0 5.0 0.00 0.00 0.00 57 1011.2
20260509173042 75 111 3.0 5.0 0.00 0.00 0.00 56 1011.4
20260509171538 76 41 1.0 4.0 0.00 0.00 0.00 58 1011.3
20260509170048 75 113 2.0 5.0 0.00 0.00 0.00 59 1011.4
20260509164542 75 53 0.0 3.0 0.00 0.00 0.00 60 1011.4
20260509163043 72 30 1.0 9.0 0.00 0.00 0.00 62 1011.5
20260509161540 72 115 1.0 3.0 0.00 0.00 0.00 63 1011.3
20260509160039 73 117 2.0 6.0 0.00 0.00 0.00 65 1011.4
20260509154543 71 32 3.0 8.0 0.00 0.00 0.00 67 1011.6
20260509153058 69 51 1.0 6.0 0.00 0.00 0.00 71 1011.3
20260509151547 69 80 2.0 5.0 0.00 0.00 0.00 73 1011.3
20260509150046 67 68 2.0 6.0 0.00 0.00 0.00 75 1011.2
20260509144538 66 23 3.0 7.0 0.00 0.00 0.00 79 1011.3
20260509143039 65 49 3.0 7.0 0.00 0.00 0.00 82 1011.1
20260509141539 63 46 5.0 11.0 0.00 0.00 0.00 83 1011.1
20260509140048 63 20 6.0 12.0 0.00 0.00 0.00 84 1010.9
20260509134541 62 94 3.0 7.0 0.00 0.00 0.00 87 1010.8
20260509133040 60 98 3.0 9.0 0.00 0.00 0.00 89 1011.1
20260509131540 58 26 2.0 8.0 0.00 0.00 0.00 92 1011.0
20260509130042 57 31 2.0 9.0 0.00 0.00 0.00 94 1011.0
20260509124538 56 87 4.0 11.0 0.00 0.00 0.00 95 1011.0
20260509123040 55 36 4.0 9.0 0.00 0.00 0.00 95 1011.1
20260509121541 54 56 3.0 8.0 0.00 0.00 0.00 95 1011.2
20260509120043 54 27 3.0 8.0 0.00 0.00 0.00 96 1010.8
20260509114538 53 56 1.0 4.0 0.00 0.00 0.00 96 1010.4
20260509113042 53 20 1.0 5.0 0.00 0.00 0.00 96 1010.2
20260509111542 53 49 1.0 5.0 0.00 0.00 0.00 95 1009.9
20260509110044 52 27 2.0 5.0 0.00 0.00 0.00 95 1009.8
20260509104540 52 0 0.0 2.0 0.00 0.00 0.00 95 1009.8
20260509103040 52 37 0.0 1.0 0.00 0.00 0.00 94 1009.9
20260509101545 52 37 0.0 1.0 0.00 0.00 0.00 94 1009.9
20260509100045 52 0 0.0 1.0 0.00 0.00 0.00 93 1009.9
20260509094541 53 0 0.0 1.0 0.00 0.00 0.00 93 1010.1
20260509093042 53 37 0.0 2.0 0.00 0.00 0.00 92 1010.1
20260509091540 54 0 0.0 1.0 0.00 0.00 0.00 91 1010.3
20260509090041 54 42 0.0 2.0 0.00 0.00 0.00 90 1010.4
20260509084547 54 0 0.0 2.0 0.00 0.00 0.00 90 1010.4
20260509083039 54 0 0.0 4.0 0.00 0.00 0.00 90 1010.2
20260509081537 54 44 0.0 3.0 0.00 0.00 0.00 90 1010.1
20260509080043 54 0 1.0 3.0 0.00 0.00 0.00 89 1010.4
20260509074543 54 41 0.0 1.0 0.00 0.00 0.00 89 1010.1
20260509073112 54 0 0.0 1.0 0.00 0.00 0.00 89 1010.1